Torna al catalogo

COSMOS 2251 DEB

AttivoLEO
NORAD 34325·DEBRIS·🇷🇺 Russia

Lanciato Jun 16, 1993 da Plesetsk Cosmodrome

Loading…

Prossimi Passaggi (prossime 24 ore)

TLE

AggiornatoSource: Space-Track

Epoca: Sep 14, 2026, 10:46 UTC

1 34325U 93036NX  26257.44921892  .00001250  00000-0  66347-3 0  9996
2 34325  73.8687  66.4297 0191082  32.0813 350.2127 14.05680862893886

Traccia COSMOS 2251 DEB in tempo reale con AllMySat

Download on the App Store